Weather History for ESNO - November, 2013

Change the Weather History Date:

Wednesday, November 6, 2013

  Actual Average Record
Temperature  
Mean Temperature 28 °F -  
Max Temperature 35 °F - - ()
Min Temperature 21 °F - - ()
Degree Days  
Heating Degree Days 37    
Moisture  
Dew Point 29 °F    
Average Humidity 92    
Maximum Humidity 100    
Minimum Humidity 87    
Precipitation  
Precipitation 0.00 in - - ()
Sea Level Pressure  
Sea Level Pressure 29.18 in    
Wind  
Wind Speed 6 mph ()    
Max Wind Speed 13 mph    
Max Gust Speed -    
Visibility 6.2 miles    
Events Rain    
T = Trace of Precipitation, MM = Missing Value Source: Averaged Metar Reports

Daily Weather History Graph

Daily Weather History Graph

Search for Another Location

Airport or City:

Trip Planner

Search our weather history database for the weather conditions in past years. The results will help you decide how hot, cold, wet, or windy it might be!

Date:

Astronomy

Nov. 06, 2013 Rise Set
Actual Time 7:38 AM CET 3:15 PM CET
Civil Twilight 6:45 AM CET 4:09 PM CET
Nautical Twilight 5:48 AM CET 5:05 PM CET
Astronomical Twilight 4:54 AM CET 5:59 PM CET
Moon 11:12 AM CET (11/6) 5:24 PM CET (11/6)
Length of Visible Light 9h 24m
Length of Day
7h 37m
Waxing Crescent, 11% of the Moon is Illuminated
Nov 6
Waxing Crescent
Nov 10
First Quarter
Nov 17
Full
Nov 25
Last Quarter
Dec 3
New

Hourly Weather History & Observations

Time (CET) Temp. Windchill Dew Point Humidity Pressure Visibility Wind Dir Wind Speed Gust Speed Precip Events Conditions
12:20 AM 35.6 °F 27.1 °F 33.8 °F 93% 28.97 in 6.2 mi WNW 12.7 mph - N/A   Mostly Cloudy
12:50 AM 35.6 °F 28.0 °F 33.8 °F 93% 29.00 in 6.2 mi WNW 10.4 mph - N/A   Light Drizzle
1:20 AM 35.6 °F 28.0 °F 33.8 °F 93% 29.00 in 6.2 mi WNW 10.4 mph - N/A   Light Drizzle
1:50 AM 35.6 °F 28.6 °F 32.0 °F 87% 29.00 in 6.2 mi West 9.2 mph - N/A   Drizzle
2:20 AM 33.8 °F 27.7 °F 32.0 °F 93% 29.03 in 6.2 mi West 6.9 mph - N/A Rain Light Rain
2:50 AM 33.8 °F 29.6 °F 32.0 °F 93% 29.03 in 6.2 mi West 4.6 mph - N/A   Light Drizzle
3:20 AM 33.8 °F 28.6 °F 32.0 °F 93% 29.03 in 6.2 mi West 5.8 mph - N/A   Overcast
3:50 AM 33.8 °F 28.6 °F 32.0 °F 93% 29.06 in 6.2 mi West 5.8 mph - N/A   Overcast
4:20 AM 33.8 °F 28.6 °F 32.0 °F 93% 29.06 in 6.2 mi West 5.8 mph - N/A   Overcast
4:50 AM 33.8 °F 29.6 °F 32.0 °F 93% 29.06 in 6.2 mi West 4.6 mph - N/A   Overcast
5:20 AM 33.8 °F 28.6 °F 32.0 °F 93% 29.06 in 6.2 mi West 5.8 mph - N/A   Overcast
5:50 AM 33.8 °F 27.0 °F 32.0 °F 93% 29.09 in 6.2 mi NW 8.1 mph - N/A   Overcast
6:20 AM 33.8 °F 26.4 °F 30.2 °F 87% 29.09 in - NW 9.2 mph - N/A   Clear
6:50 AM 32.0 °F 24.2 °F 30.2 °F 93% 29.09 in 6.2 mi NW 9.2 mph - N/A   Mostly Cloudy
7:20 AM 32.0 °F 24.2 °F 30.2 °F 93% 29.12 in 6.2 mi NW 9.2 mph - N/A   Mostly Cloudy
7:50 AM 32.0 °F 26.4 °F 30.2 °F 93% 29.12 in 6.2 mi West 5.8 mph - N/A   Mostly Cloudy
8:20 AM 32.0 °F 27.5 °F 30.2 °F 93% 29.12 in 6.2 mi NW 4.6 mph - N/A   Mostly Cloudy
8:50 AM 32.0 °F 27.5 °F 30.2 °F 93% 29.15 in 6.2 mi NW 4.6 mph - N/A   Scattered Clouds
9:20 AM 32.0 °F 26.4 °F 30.2 °F 93% 29.15 in - WNW 5.8 mph - N/A   Clear
9:50 AM 32.0 °F 26.4 °F 30.2 °F 93% 29.15 in - WNW 5.8 mph - N/A   Clear
10:20 AM 33.8 °F 28.6 °F 30.2 °F 87% 29.15 in - NW 5.8 mph - N/A   Clear
10:50 AM 33.8 °F 28.6 °F 30.2 °F 87% 29.18 in 6.2 mi NW 5.8 mph - N/A   Overcast
11:20 AM 33.8 °F 28.6 °F 30.2 °F 87% 29.18 in 6.2 mi NW 5.8 mph - N/A   Overcast
11:50 AM 33.8 °F 29.6 °F 30.2 °F 87% 29.18 in 6.2 mi NW 4.6 mph - N/A   Overcast
12:20 PM 33.8 °F 27.7 °F 30.2 °F 87% 29.18 in 6.2 mi NW 6.9 mph - N/A   Overcast
12:50 PM 33.8 °F 27.7 °F 30.2 °F 87% 29.18 in - NW 6.9 mph - N/A   Clear
1:20 PM 32.0 °F 26.4 °F 30.2 °F 93% 29.21 in - NW 5.8 mph - N/A   Clear
1:50 PM 32.0 °F 27.5 °F 28.4 °F 87% 29.21 in - NW 4.6 mph - N/A   Clear
2:20 PM 32.0 °F 26.4 °F 28.4 °F 87% 29.21 in - NW 5.8 mph - N/A   Clear
2:50 PM 32.0 °F 26.4 °F 28.4 °F 87% 29.21 in - NNW 5.8 mph - N/A   Clear
3:20 PM 30.2 °F 25.4 °F 28.4 °F 93% 29.24 in - NW 4.6 mph - N/A   Clear
3:50 PM 32.0 °F 26.4 °F 28.4 °F 87% 29.24 in - NNW 5.8 mph - N/A   Clear
4:20 PM 28.4 °F 22.2 °F 26.6 °F 93% 29.24 in - NW 5.8 mph - N/A   Clear
4:50 PM 28.4 °F 24.6 °F 26.6 °F 93% 29.24 in - NW 3.5 mph - N/A   Clear
5:20 PM 28.4 °F - 26.6 °F 93% 29.27 in 6.2 mi Variable 1.2 mph - N/A   Unknown
5:50 PM 26.6 °F - 24.8 °F 93% 29.27 in - Calm Calm - N/A   Clear
6:20 PM 26.6 °F - 24.8 °F 93% 29.30 in - West 2.3 mph - N/A   Clear
6:50 PM 26.6 °F 22.6 °F 24.8 °F 93% 29.30 in - NNW 3.5 mph - N/A   Clear
7:20 PM 28.4 °F 24.6 °F 26.6 °F 93% 29.30 in - NW 3.5 mph - N/A   Clear
7:50 PM 26.6 °F 22.6 °F 24.8 °F 93% 29.30 in - NW 3.5 mph - N/A   Clear
8:20 PM 26.6 °F - 24.8 °F 93% 29.30 in - NNW 2.3 mph - N/A   Clear
8:50 PM 24.8 °F - 23.0 °F 93% 29.30 in - NNW 2.3 mph - N/A   Clear
9:20 PM 24.8 °F - 23.0 °F 93% 29.33 in - West 1.2 mph - N/A   Clear
9:50 PM 24.8 °F 19.1 °F 23.0 °F 93% 29.33 in - West 4.6 mph - N/A   Clear
10:20 PM 23.0 °F - 21.2 °F 93% 29.33 in 6.2 mi NW 2.3 mph - N/A   Unknown
10:50 PM 23.0 °F 18.4 °F 21.2 °F 93% 29.33 in 6.2 mi WNW 3.5 mph - N/A   Unknown
11:20 PM 21.2 °F 16.4 °F 21.2 °F 100% 29.33 in 6.2 mi NNW 3.5 mph - N/A   Unknown
11:50 PM 21.2 °F 16.4 °F 21.2 °F 100% 29.33 in 6.2 mi NW 3.5 mph - N/A   Unknown